Reflectivity
10 -20 -20 -20 -20 -20 -20 -20 -20 -20 -20 -20 -20 -20 -20 -20 -20 -20 -20 -20 -15 -20 -20 -20 -20 -20 -20 -20 -20 -20 -20 -20 -20 -20 -20 -20 -20 -20 -20 -20 -20 -20 -20 -20 -20 -18 -20
-15 -3 -20 -20 -20 -20 -20 -20 -20 -20 -20 -20 -20 -20 -20 -20 -20 -20 -20 -20 -20 -19 -11 -20 -20 -20 -20 -20 -20 -20 -20 -20 -20 -20 -20 -20 -20 -20 -20 -20 -20 -20 -1 -16 -13 -18 -20
-3 13 -6 -20 -20 -20 -20 -20 -20 -18 -20 -20 -20 -20 -20 -20 -20 -20 -20 -20 -20 -20 -20 -20 -20 -20 -20 -20 -20 -20 -6 -3 -20 -19 -6 -2 -20 -20 -20 -20 -20 -15 -19 -20 -20 -20 -20
2 5 8 -7 -20 -20 -20 -20 -20 -20 -20 -20 -20 -20 -20 -20 -20 -20 -20 -20 -20 -20 -20 -20 -20 -20 -20 -20 -20 -20 -20 -8 -20 -20 -20 -14 -19 -20 -20 -20 -20 -20 -20 -20 -20 -20 -20
-20 -20 -3 -5 -19 -19 -20 -20 -20 -20 -20 -20 -20 -20 -20 -20 -20 -20 -20 -20 -20 -20 -20 -20 -20 -20 -20 -20 -20 -20 -20 -20 -4 2 -20 -20 -20 -20 -20 -20 -20 -20 -20 -20 -20 -20 -20
-20 -20 -19 -7 -20 -20 -20 -20 -20 -20 -20 -20 -20 -20 -20 -20 -20 -20 -20 -20 -20 -10 -6 -20 -20 -20 -20 -20 -20 -20 -20 -20 -18 -10 -17 -15 -19 -20 -20 -18 -20 -20 -20 -20 -20 -20 -20
-20 -20 -20 -20 -15 -20 -3 -20 -20 -20 -20 -20 -20 -20 -20 -20 -20 -20 -20 -20 -20 -20 -20 -20 -20 -20 -20 -20 -20 -20 -20 -14 -0 6 -20 -19 -20 -20 -20 -20 -20 -20 -20 -20 -20 -20 -20
-20 -20 -20 -20 -20 -20 -19 -6 -20 -20 -20 -20 -20 -20 -20 -20 -20 -20 -20 -20 -20 -20 -20 -20 -20 -20 -20 -20 -20 -20 -20 -8 -18 -20 -20 -20 -20 -20 -20 -20 -20 -20 -20 -20 -20 -20 -20
-20 -20 -20 -20 -20 -20 -18 -9 -20 -20 -20 -20 -20 -20 -20 -20 -20 -20 -20 -20 -20 -20 -20 -20 -20 -20 -20 -20 -20 -20 -20 -20 -20 -20 -20 -20 -20 -20 -20 -20 -20 -20 -20 -20 -20 -20 -20
-20 -20 -20 -20 -20 -20 -20 -20 -10 -20 -20 -20 -20 -20 -20 -20 -20 -20 -20 -20 -20 -20 -20 -20 -20 -20 -20 -20 -20 -20 -20 -20 -20 -20 -20 -20 -19 -20 -20 -20 -20 -20 -20 -20 -20 -20 -20
-20 -20 -20 -20 -20 -20 -20 -20 -20 -20 -20 -20 -20 -20 -20 -20 -20 -20 -20 -20 -20 -20 18 -20 -20 -20 -20 -20 -20 -20 -20 -20 -20 -20 -20 -20 -20 -20 -20 -20 -20 -20 -20 -20 -20 -20 -20
-20 -20 -20 -20 -20 -20 -20 -9 -20 -19 -20 -20 -20 -20 -20 -20 -20 -20 -20 -20 -20 -13 16 -20 -20 -20 -20 -20 -20 -20 -20 -20 -20 -20 -20 -20 -20 -20 -20 -20 -20 -20 -20 -20 -20 -20 -20
-20 -20 -20 -20 -20 -20 -18 -20 -11 -8 -20 -20 -20 -20 -20 -20 -20 -20 -20 -20 -6 22 -20 -20 -20 -20 -20 -20 -20 -20 -20 -20 -20 -20 -20 -20 -20 -20 -20 -20 -20 -20 -20 -20 -20 -20 -17
-20 -20 -20 -20 -20 -20 -20 -20 7 -16 -20 -20 -20 -20 -20 -20 -20 -20 -20 -20 24 -20 -20 -20 -20 -20 -20 -20 -20 -20 -20 -20 -20 -20 -20 -20 -20 -20 -20 -20 -20 -20 -20 -20 -20 -2 21
-20 -20 -20 -20 -20 -20 -20 -20 -1 -19 -20 -20 -20 -20 -20 -20 -20 -20 -20 24 -20 -20 -20 -20 -20 -20 -20 -20 -20 -20 -20 -20 -20 -20 -20 -20 -20 -20 -20 -20 -20 -20 -20 -20 -20 -20 -20
-20 -20 -20 -20 -20 -20 4 -4 -18 -7 -20 -20 -20 -20 -20 -20 -20 -20 -20 6 -20 -20 -20 -20 -20 -20 -20 -20 -20 -20 -20 -20 -20 -20 -20 -20 -20 -20 -20 -20 -20 -20 -20 -17 -20 -10 -2
-20 -20 -20 -20 -20 -20 4 -20 -20 -18 -20 -20 -20 -20 -20 -20 -20 -20 -9 -20 -20 -20 -20 -20 -20 -20 -20 -20 -20 -20 -20 -20 -20 -20 -20 -20 -20 -20 -20 -20 -20 -20 -20 -20 9 -20 8
-20 -20 -20 -20 -20 -20 -20 -20 -18 2 -20 -20 -20 -20 -20 -20 -20 -20 -20 -20 -20 -20 -20 -20 -20 -20 -20 -20 -20 -20 -20 -20 -20 -20 -20 -20 -20 -20 -20 -20 -20 -20 -20 -3 -20 -18 -19
-20 -20 -20 -20 -20 -20 -20 -20 14 -20 -20 -20 -20 -20 -20 -20 -20 -20 -20 -20 -20 -20 -20 -20 -20 -20 -20 -20 -20 -20 -20 -20 -20 -20 -20 -20 -20 -20 -20 -13 -20 -20 -20 -20 -20 -10 -20
-20 -20 -20 -20 -20 -20 -20 -18 10 -6 -20 -20 -20 -20 -20 -20 -20 -20 -20 -20 -20 -20 -20 -20 -20 -20 -20 -20 -20 -20 -20 -20 -20 -20 -20 -20 -20 -20 7 -1 2 1 -20 -20 -12 15 -6
-20 -20 -20 -20 -20 -20 -15 -20 1 9 3 -20 -20 -20 -20 -20 -20 -20 -20 -20 -20 -20 -20 -20 -20 -20 -20 -20 -20 -20 -20 -20 -20 -20 -20 -20 7 4 -20 -20 -20 -8 -14 -20 -4 -9 25
-20 -20 -20 -20 -20 -20 -20 -7 5 9 8 -20 -20 -20 -20 -20 -20 -20 -20 -20 -20 -20 -20 -20 -20 -20 -20 -20 -20 -20 -20 -20 -20 -20 -12 -20 19 6 18 -19 -20 2 21 -19 -20 -20 -20
-20 -20 -20 -20 -20 -20 -20 -20 -3 10 2 -20 -20 -20 -20 -20 -20 -20 -20 -20 -20 -20 -20 -20 -20 -20 -20 -20 -20 -20 -20 -20 -20 -20 -20 -20 16 9 18 14 16 -4 -2 -4 5 -19 5
-20 -20 -20 -20 -20 -20 -20 -20 -20 7 6 -19 -20 -20 -6 -20 -20 -20 -20 -20 -20 -20 -20 -20 -20 -20 -20 -20 -20 -20 -20 -20 -20 -20 -20 -20 -3 -20 17 22 21 2 -17 -9 -15 -4 -20
-20 -20 -20 -20 -20 -20 -20 -20 -20 -5 8 6 -20 -20 -20 -20 -20 -20 -20 -20 -20 -20 -20 -20 -20 -20 -20 -20 -20 -20 -20 -20 -20 -20 -20 -20 -20 16 13 4 1 14 -20 6 6 0 -20
-20 -20 -20 -20 -20 -20 -20 -20 -20 -0 20 1 -20 -20 -20 -20 -20 -20 -20 -20 -20 -20 -20 -20 -20 -20 -20 -20 -20 -20 -20 -20 -20 -20 -20 -20 -20 -8 13 9 19 -10 -20 -20 -20 5 -20
-20 -20 -20 -20 -20 -20 -20 -20 -20 -15 23 7 -19 -20 -20 -20 -20 -20 -20 -20 -20 -20 -20 -20 -20 -20 -20 -20 -20 -20 -20 -20 -20 -20 -20 -10 -4 8 -10 -2 -3 -19 -20 -20 15 4 -20
-20 -20 -20 -20 -20 -20 -20 -20 -20 -12 25 11 -4 -20 -20 -20 -20 -20 -20 -20 -20 -20 -20 -20 -20 -20 -20 -20 -20 -20 -20 -20 -20 -20 -20 -16 2 -17 0 -17 -9 -20 -20 12 -12 -20 -20
-20 -20 -20 -20 -20 -20 -20 -20 -20 1 25 17 3 -20 -20 -20 -20 -20 -20 -20 -20 -20 -20 -20 -20 -20 -20 -20 -20 -20 -20 -20 -20 -20 -20 -10 -19 3 -20 -18 -20 -20 -20 -20 -20 -20 -1
Wind_Speed
2 1 1 2 3 5 7 10 11 10 11 12 14 16 16 17 17 17 16 16 17 17 18 17 16 15 10 9 7 11 9 8 11 11 9 7 9 10 10 3 3 3 6 9 9 8 13
8 3 3 3 2 4 5 7 8 10 11 12 14 16 17 18 18 18 17 18 17 18 18 16 13 13 8 12 8 14 12 11 12 10 5 7 6 5 8 4 5 10 9 9 10 13 11
11 10 6 4 3 3 4 6 8 10 12 14 16 16 16 18 19 19 19 19 18 19 17 14 9 7 8 1 2 10 7 8 5 8 8 4 5 9 1 5 5 11 10 9 10 10 11
12 12 10 8 5 4 4 5 6 8 10 11 14 15 16 17 18 19 20 20 19 19 14 9 6 9 7 2 4 6 11 10 5 6 7 3 6 7 6 9 8 14 10 13 8 9 7
11 12 12 10 9 6 5 6 7 9 11 13 15 17 18 18 18 20 21 20 20 12 5 4 7 8 4 5 10 9 7 6 5 5 2 4 8 6 6 11 10 12 13 9 8 5 5
12 12 12 13 12 9 7 6 7 9 11 12 15 18 20 19 20 21 23 19 5 5 7 8 8 7 5 8 7 4 4 5 6 6 8 10 8 9 10 12 12 11 13 4 7 5 9
13 14 13 12 13 12 13 7 7 8 9 12 15 17 20 21 21 22 15 5 7 9 10 9 3 6 1 4 4 8 2 7 10 11 13 12 11 12 13 8 9 10 3 7 9 4 3
13 13 13 12 12 13 14 13 8 8 10 13 15 18 20 21 23 21 8 5 7 6 8 8 7 6 5 3 5 7 5 9 11 13 12 6 13 6 2 3 6 5 4 7 4 4 7
12 14 15 13 12 12 13 15 12 8 8 11 14 17 20 23 25 11 5 6 7 4 7 6 7 6 4 7 5 5 7 12 10 16 9 13 6 3 5 5 6 3 6 10 6 7 9
12 13 14 14 13 14 14 16 15 9 9 11 13 15 18 25 9 7 2 8 8 3 7 11 10 6 7 4 6 2 3 6 6 9 9 7 5 6 6 6 5 9 2 3 7 10 5
10 12 14 15 14 14 14 15 16 10 9 11 13 14 16 12 12 6 7 9 5 2 3 3 8 5 4 7 3 8 2 6 11 8 5 4 8 9 8 2 4 5 5 5 7 10 2
9 12 14 16 16 17 15 15 18 9 9 11 13 14 15 3 7 8 9 10 4 3 5 6 6 9 9 4 3 2 4 1 3 3 8 5 3 3 2 2 4 7 6 5 5 7 8
8 11 13 15 17 17 17 16 18 8 9 12 14 14 9 8 5 8 9 6 4 2 1 7 7 7 8 5 5 5 6 10 9 9 10 7 9 5 7 7 6 9 10 6 6 6 6
7 10 13 15 17 18 17 17 17 7 9 13 16 17 4 8 8 8 5 7 2 2 4 2 3 6 5 4 4 4 7 8 6 8 13 8 9 13 10 12 6 11 12 4 6 7 5
6 9 12 15 17 17 17 17 17 9 10 14 22 4 5 2 6 4 7 2 5 2 4 2 6 7 6 5 5 6 4 5 7 4 7 5 3 4 1 2 8 9 12 10 10 5 6
5 8 11 14 16 17 17 17 17 11 11 12 8 7 6 2 3 6 8 5 6 1 4 5 8 2 3 7 5 3 3 3 1 3 4 1 7 7 6 4 7 10 4 6 7 3 4
4 7 10 13 16 17 17 17 18 13 12 13 6 5 5 4 4 7 5 9 3 3 4 4 3 3 3 0 6 2 3 5 1 2 5 4 5 6 3 10 10 9 10 6 5 2 3
4 5 8 11 15 17 17 17 16 14 15 9 5 5 3 4 7 8 8 5 3 4 2 2 4 4 4 1 2 3 2 8 4 5 4 3 6 9 7 9 5 10 6 8 2 3 2
6 5 7 10 13 16 17 16 16 13 11 7 5 4 4 5 6 7 4 6 2 5 1 2 2 4 1 1 3 2 2 4 2 4 9 3 5 7 9 10 8 8 9 5 9 4 4
7 5 6 9 12 15 17 16 17 14 9 6 5 5 5 7 9 8 10 10 8 0 3 1 2 1 2 2 1 2 3 3 2 5 5 4 6 7 8 6 8 4 2 8 12 5 5
9 6 5 7 11 14 14 16 17 17 10 6 5 4 5 6 10 9 7 7 11 7 2 2 3 3 2 2 2 1 2 5 3 4 3 6 2 1 6 3 4 7 1 4 5 7 3
9 8 5 5 9 12 14 15 16 17 13 6 5 4 3 4 6 12 7 8 11 7 3 5 1 2 0 3 4 2 2 3 4 2 5 5 1 2 6 11 12 12 8 9 7 8 12
10 9 6 4 7 11 13 14 13 15 10 5 2 3 6 4 8 9 10 7 7 10 5 3 10 11 12 11 11 11 9 7 5 6 5 2 2 1 4 9 13 9 6 4 7 10 8
10 9 6 4 6 9 12 14 12 11 12 9 5 6 6 5 8 9 6 6 11 4 10 8 7 10 10 13 14 13 12 12 9 7 6 7 4 4 4 5 2 2 0 3 8 9 11
11 11 7 5 4 6 11 12 13 12 12 7 5 5 5 5 8 5 8 12 12 13 12 7 3 13 12 10 9 7 6 7 10 9 6 6 2 3 1 8 6 2 4 2 2 4 10
12 11 8 5 4 4 9 12 13 12 13 6 6 4 5 8 3 5 10 14 13 13 10 16 16 8 2 5 3 2 2 2 4 5 3 4 3 3 2 4 2 5 6 1 5 4 8
14 12 9 6 4 3 7 11 13 12 12 8 5 1 6 6 4 5 5 10 7 9 7 12 8 6 4 5 4 2 4 1 3 2 2 4 3 4 2 4 3 4 4 3 4 5 4
15 12 10 8 6 2 7 11 13 12 12 7 5 2 6 6 5 3 3 5 7 6 9 13 8 4 6 5 2 3 3 3 4 0 3 1 2 2 3 3 2 7 5 1 6 4 4
15 12 10 8 5 2 6 11 13 11 11 11 7 3 4 6 6 3 4 5 7 8 3 14 4 13 4 2 1 3 4 5 8 4 5 3 1 1 4 3 5 6 2 3 5 4 4
Wind_Direction
292 285 350 350 20 27 24 14 0 348 346 339 339 340 339 333 333 326 325 317 318 317 313 312 311 316 301 224 254 119 141 167 205 225 236 218 242 240 252 242 185 198 107 87 84 97 85
16 320 315 314 354 29 16 15 347 341 334 338 343 335 335 333 327 326 321 312 313 311 307 304 304 309 245 255 81 135 179 180 232 233 225 238 260 273 297 251 247 91 103 130 122 115 119
27 15 348 309 327 2 3 3 344 341 334 339 340 331 324 325 324 319 314 311 311 305 301 294 286 270 260 292 106 154 179 221 261 275 266 239 283 223 227 139 88 140 152 150 140 137 142
31 13 11 355 333 339 350 341 331 330 328 332 329 324 326 325 321 316 312 313 307 303 291 275 257 244 268 178 201 207 185 233 220 264 270 309 232 272 269 94 182 204 210 185 151 177 160
18 16 11 360 349 329 326 323 326 331 333 336 330 329 325 323 320 316 314 310 301 286 269 180 220 236 242 124 214 194 225 245 180 195 212 214 215 213 187 199 200 218 239 194 140 209 166
14 5 357 356 356 350 307 303 315 332 332 326 329 331 324 323 321 317 314 298 308 255 214 218 259 255 219 207 169 201 211 273 230 166 174 205 215 211 218 212 234 221 211 215 166 121 226
13 9 357 344 355 358 341 292 309 319 323 329 327 326 324 324 320 317 316 215 212 191 218 281 87 298 157 130 197 218 187 229 220 202 223 207 232 220 215 218 314 304 274 178 103 32 146
10 6 359 355 350 355 340 329 297 316 328 326 327 326 322 322 315 314 289 303 32 343 295 216 250 261 248 283 198 205 223 229 204 220 219 192 236 60 311 246 257 267 241 121 99 171 256
7 4 3 357 356 348 338 335 318 307 321 317 321 323 327 322 317 297 360 22 329 316 260 164 209 226 180 206 238 156 228 224 218 229 201 243 80 134 213 204 222 219 252 154 278 169 246
5 2 359 356 351 346 343 339 323 302 309 311 318 327 332 321 290 335 207 352 350 347 267 144 195 176 182 222 201 292 268 292 217 241 214 264 126 196 207 229 300 256 153 236 165 198 233
4 358 359 357 353 340 348 337 327 295 299 310 316 326 324 328 311 283 8 338 339 223 273 175 131 87 156 221 96 138 173 223 254 199 236 120 185 204 215 243 251 43 143 192 198 231 271
2 359 358 357 351 346 342 340 330 292 300 309 316 321 332 267 259 289 330 312 247 238 251 167 153 183 183 198 191 112 183 255 9 208 240 85 39 253 349 173 254 135 163 167 216 237 236
356 358 357 356 353 344 341 340 332 294 312 312 310 306 295 300 306 327 320 245 235 198 212 160 182 185 213 157 177 254 201 189 219 205 194 181 186 133 171 143 155 187 181 196 219 200 229
348 353 356 355 354 347 346 342 338 315 321 311 309 306 233 259 298 312 275 227 235 277 218 42 191 187 216 164 161 205 223 211 217 275 282 194 197 182 181 241 211 218 215 226 237 241 176
333 350 353 353 352 350 344 345 346 326 321 318 306 273 261 205 266 257 247 153 231 297 26 220 172 211 168 196 284 221 253 332 32 330 266 317 237 101 265 235 260 197 231 273 285 254 282
315 339 350 351 350 350 347 348 351 326 323 326 311 288 248 101 220 239 236 234 247 322 295 260 240 272 261 173 223 215 170 66 143 322 310 341 277 174 136 239 225 273 324 214 228 197 242
274 326 343 346 348 350 349 348 350 331 321 323 268 260 105 164 235 222 199 224 211 108 315 295 266 240 295 272 291 221 52 106 347 70 287 291 238 156 168 208 218 188 237 244 91 63 291
239 307 334 342 346 348 349 348 345 333 322 279 281 233 127 173 216 207 224 233 353 157 201 238 289 326 299 27 276 291 317 31 357 316 274 73 295 262 235 71 344 304 266 142 196 183 254
225 284 324 338 344 347 348 350 346 340 344 312 251 269 135 222 223 202 161 180 225 191 180 239 150 340 317 342 279 326 67 40 339 291 356 31 248 271 227 186 193 240 202 233 126 171 213
223 258 309 334 340 347 346 353 351 346 337 294 274 206 160 207 280 283 185 199 161 119 120 66 103 238 204 187 320 133 130 75 15 34 315 290 282 301 318 352 309 219 240 235 213 210 193
221 240 287 326 336 342 350 358 355 354 333 285 242 267 8 188 214 231 203 194 186 169 160 221 150 299 274 187 168 150 103 160 140 134 226 290 354 323 293 324 7 49 359 238 179 247 165
220 227 260 312 331 342 351 355 354 353 335 257 297 303 179 310 267 209 188 207 196 123 301 141 226 139 157 82 335 114 158 338 18 133 5 15 170 117 70 97 101 88 61 98 108 120 125
218 219 226 296 324 343 347 351 348 352 351 284 93 246 276 128 198 208 185 176 163 146 44 128 120 106 91 81 78 76 74 76 75 8 18 31 142 180 132 156 142 78 355 47 81 56 101
209 208 212 268 312 341 348 353 358 347 357 301 357 294 271 220 204 202 155 155 148 154 140 112 124 114 113 113 107 101 94 88 80 65 17 76 102 129 135 226 73 109 38 88 75 54 58
201 195 210 248 299 340 347 348 354 351 348 281 315 303 298 276 204 143 165 117 118 117 107 118 146 119 140 157 137 136 127 123 83 44 55 19 80 57 97 67 122 140 178 50 43 87 80
184 189 208 236 261 323 344 348 349 346 345 300 272 319 280 299 148 152 151 154 137 123 106 96 110 112 205 215 214 182 79 31 91 127 18 106 355 132 342 99 104 144 108 0 305 152 59
182 189 204 227 243 295 340 343 343 341 341 320 311 226 274 273 93 290 169 174 151 164 123 149 150 176 249 207 184 135 109 3 148 120 79 78 98 90 108 90 144 185 115 264 274 68 73
178 188 200 218 230 293 334 340 340 338 344 333 307 214 280 291 102 326 322 144 152 157 162 151 172 201 191 217 183 149 140 114 110 106 139 282 297 114 261 113 174 164 182 324 51 102 353
178 184 200 215 220 279 312 338 339 336 341 339 271 165 234 271 29 16 13 351 3 2 120 174 355 153 158 201 219 124 153 167 155 131 163 187 323 132 355 53 100 119 142 98 39 357 24